Probability
1 2 2 1 1 4 10 12 10 8 6 5 5 5 3 1 1 2 4 5 6 6 5 3 2 1 0 1 2 3 3 3 3 3 3 2 1 0 0 0 0 0 0
1 1 1 1 2 5 8 10 9 7 6 6 6 6 5 3 1 1 2 4 5 5 3 2 1 0 1 2 3 3 3 3 3 3 3 3 1 1 0 0 0 0 0
3 1 0 1 3 5 6 8 9 9 9 8 6 6 7 5 2 1 1 3 3 2 2 1 1 1 2 3 3 3 3 3 3 3 3 3 3 2 1 0 0 0 1
6 3 1 1 3 5 6 8 11 14 15 12 9 8 8 5 2 2 3 4 3 2 1 1 2 3 3 3 3 3 3 3 3 3 3 3 4 3 2 2 2 2 2
7 5 2 2 3 5 8 10 14 18 18 15 14 13 9 5 3 3 4 4 3 2 1 1 3 3 3 3 3 3 3 3 3 3 3 4 5 5 5 4 4 4 4
8 6 4 4 5 7 10 13 17 20 19 16 16 15 10 6 5 4 4 3 2 1 1 2 3 3 3 3 3 3 3 3 4 5 5 6 7 8 7 5 4 5 5
7 6 5 5 7 10 13 17 21 22 19 16 14 12 10 7 6 6 5 3 2 1 1 2 3 4 3 3 4 5 5 5 6 8 9 8 8 9 8 5 3 3 3
8 7 6 6 8 11 14 17 20 21 19 15 12 12 11 10 10 9 7 5 3 2 1 2 3 3 3 4 6 7 8 8 9 10 10 10 9 9 7 5 3 1 1
12 11 9 7 9 12 14 15 16 18 17 14 13 14 15 15 14 11 9 6 5 5 5 5 5 5 5 5 7 8 9 9 9 10 10 10 10 8 6 6 4 1 0
13 13 11 10 11 12 13 13 15 15 14 12 12 13 15 16 14 11 9 8 8 9 9 8 8 7 7 7 7 7 7 7 8 9 9 9 8 7 6 6 5 3 2
11 10 11 11 11 10 10 12 14 14 12 10 10 11 13 14 12 10 10 11 11 11 9 8 8 8 8 8 7 5 5 5 6 6 7 6 6 7 6 6 6 5 5
8 7 7 8 8 8 7 10 12 12 10 9 10 12 14 15 14 12 12 12 12 10 8 7 6 6 6 5 4 3 3 3 4 4 4 4 5 5 5 5 5 6 6
8 7 6 7 8 9 9 10 12 12 11 11 12 15 17 17 16 15 14 13 12 9 7 6 5 4 3 2 2 3 3 3 3 3 3 3 3 3 3 4 5 6 6
11 10 9 9 11 14 16 16 17 17 15 16 18 20 20 19 17 16 15 14 13 10 8 6 5 4 3 3 3 3 3 3 3 2 2 2 1 1 2 3 6 6 5
16 16 16 17 19 23 25 25 25 25 23 23 23 23 23 20 17 16 16 15 13 11 9 8 6 6 5 4 3 3 4 4 3 2 2 1 1 1 1 3 5 6 5
22 24 26 27 30 34 34 31 31 31 31 28 27 25 23 20 18 16 15 14 13 13 11 9 8 6 5 4 3 4 5 5 5 4 3 3 2 2 2 3 3 4 4
30 33 35 35 38 40 40 36 35 36 35 32 29 26 22 19 17 16 14 13 13 14 14 11 9 8 6 4 3 4 6 6 6 6 5 4 4 3 3 3 2 3 3
39 40 40 40 40 42 43 41 39 40 40 36 33 29 25 21 18 15 14 14 15 15 14 13 12 10 7 5 4 4 5 6 6 6 6 5 4 4 3 3 3 3 3
41 42 42 42 42 42 44 45 46 46 44 40 36 32 29 25 20 15 14 14 14 14 14 14 14 11 8 6 3 3 5 6 6 6 6 5 4 3 3 3 3 3 3
37 39 41 42 42 43 45 47 49 49 47 42 36 33 30 28 23 17 14 13 12 11 12 13 14 11 9 6 3 3 5 6 6 6 6 4 3 3 3 3 3 3 3
35 37 40 41 42 44 45 46 46 47 46 42 37 34 31 28 24 21 18 15 12 11 12 14 13 11 9 6 3 3 5 6 6 6 5 4 3 3 3 3 3 3 3
38 41 44 44 42 42 44 46 44 42 42 40 38 36 32 26 23 23 21 18 14 12 12 14 12 10 8 5 3 2 3 5 6 6 4 3 3 3 3 3 3 3 3
44 48 50 48 43 40 42 44 40 37 36 37 36 34 29 24 22 22 22 20 17 13 12 12 11 9 8 6 3 2 2 3 5 5 4 3 3 3 3 2 3 3 3
46 49 50 49 44 40 40 40 37 34 32 32 32 29 24 20 20 21 21 20 18 15 12 11 11 10 9 8 5 3 3 3 4 4 3 3 3 3 3 3 4 4 4
42 43 45 46 45 43 39 36 35 33 30 27 27 25 21 18 18 19 19 18 16 13 11 11 10 10 9 7 5 3 3 2 2 2 3 3 3 3 4 5 5 6 6
38 39 41 44 45 43 39 35 35 32 29 26 24 23 20 18 18 18 17 15 13 9 8 8 8 9 8 5 3 2 1 1 1 1 2 3 3 3 4 5 6 6 6
Wind_Speed
10 9 9 9 8 8 8 7 6 5 4 3 2 2 1 1 1 1 2 1 1 1 1 1 0 2 1 1 2 2 2 2 1 2 1 1 1 1 0 0 0 0 0
10 10 10 9 9 9 9 8 8 7 6 3 2 1 1 1 1 1 1 1 1 1 0 1 1 1 1 1 1 2 2 2 2 2 2 2 2 1 1 1 0 0 1
12 11 11 11 10 10 10 8 8 7 6 5 4 3 2 2 2 1 1 1 1 1 2 1 2 2 2 1 1 2 2 2 2 2 2 2 0 1 1 2 1 1 1
12 12 12 11 11 10 9 9 8 7 7 7 5 4 2 2 1 0 1 1 1 1 1 1 2 2 2 2 2 1 2 3 2 2 2 2 1 1 1 1 2 2 2
12 12 12 11 11 10 9 9 8 8 7 6 5 5 3 2 2 1 1 1 1 1 2 2 2 2 2 3 3 2 3 2 3 2 2 2 2 3 1 1 1 1 2
12 12 11 11 10 10 9 9 9 8 8 7 6 5 3 2 1 1 1 1 1 0 1 1 2 2 3 3 3 3 2 3 3 3 2 2 2 2 1 2 2 1 2
12 12 12 12 11 11 10 9 10 9 8 8 6 6 5 4 3 2 1 1 0 0 1 2 2 2 2 3 3 2 3 2 2 3 2 2 2 1 1 2 2 1 1
12 12 12 12 11 11 11 10 10 9 9 8 7 6 5 4 2 1 1 0 1 2 2 2 2 2 3 3 2 2 2 2 2 2 2 2 1 0 1 1 2 2 2
12 12 12 12 11 11 11 11 10 10 9 8 7 6 5 3 2 2 2 0 0 0 1 2 2 2 3 3 2 2 2 2 2 2 1 1 1 0 0 1 1 2 2
11 12 11 11 10 10 10 10 10 10 9 9 7 6 5 5 3 2 1 0 0 1 1 1 2 2 3 3 3 2 3 2 3 2 3 2 1 1 1 0 0 1 1
11 11 11 11 10 10 10 11 10 9 9 8 7 6 6 5 4 3 2 2 1 1 1 1 2 2 3 3 3 3 3 3 3 3 3 3 2 1 1 1 1 1 2
9 10 11 11 11 11 10 11 10 10 9 8 8 7 6 5 5 4 3 3 2 2 2 2 2 2 3 3 3 3 4 4 4 4 3 3 2 2 2 1 2 3 3
9 10 11 11 10 10 10 10 10 10 10 9 9 8 7 6 5 5 4 4 3 3 3 3 2 2 3 3 3 3 4 4 4 4 4 3 3 2 2 2 2 3 4
9 10 10 10 9 9 9 9 9 10 10 9 9 8 7 7 6 5 5 4 4 3 3 3 3 2 3 3 3 3 4 4 4 4 4 4 3 3 2 2 3 3 4
9 10 10 10 10 9 9 9 9 9 10 9 9 8 8 7 7 6 5 4 4 4 4 3 3 2 2 3 3 2 3 3 4 4 4 5 6 7 5 3 3 3 2
9 10 10 10 10 10 10 10 9 9 10 10 9 8 8 8 7 6 6 5 4 4 4 3 3 2 4 6 5 3 3 3 4 4 3 4 5 6 6 7 7 5 2
9 9 10 10 10 10 10 10 10 10 9 9 9 9 9 8 7 7 6 6 5 5 4 3 3 4 5 4 4 3 2 4 4 4 3 3 5 3 4 6 6 6 6
7 8 9 9 10 10 10 10 10 11 10 10 10 9 9 8 8 7 6 6 5 4 4 3 4 4 4 3 2 1 3 4 4 4 4 4 4 4 2 4 5 6 5
5 6 7 9 10 10 10 10 10 10 10 10 10 9 9 9 8 8 7 6 5 4 4 4 4 4 4 3 1 3 3 4 4 4 4 3 4 4 3 4 5 5 5
4 5 7 8 9 9 10 10 9 9 9 9 9 9 8 8 8 8 7 6 5 5 4 4 3 4 4 3 1 4 2 3 3 4 4 5 4 3 3 3 4 4 3
4 5 6 7 7 8 9 9 9 9 8 8 8 8 8 8 8 7 6 6 5 5 4 4 4 3 3 5 2 2 1 1 2 3 3 4 4 2 1 1 2 2 1
5 5 5 6 6 7 8 8 7 8 8 9 9 8 8 7 7 7 6 6 6 6 5 5 4 4 4 3 4 2 1 3 1 1 2 4 4 3 1 1 2 2 3
4 4 5 6 5 6 7 8 7 7 8 9 9 8 8 7 7 8 8 7 6 5 5 5 5 4 4 5 5 4 2 0 0 2 5 4 3 3 3 3 3 4 3
3 4 5 6 5 6 6 6 6 7 8 9 8 8 7 7 7 6 6 6 6 5 5 5 4 4 4 4 5 5 5 6 5 4 5 5 3 3 2 4 4 4 2
3 3 4 5 5 5 5 6 7 7 8 8 7 7 7 6 6 5 3 4 3 2 3 4 4 4 4 3 2 2 3 3 2 3 4 4 4 4 4 4 3 3 3
2 3 3 4 4 5 5 5 6 7 7 7 7 6 6 6 6 5 4 3 1 3 2 1 1 1 3 6 5 3 2 2 3 4 4 4 4 4 3 3 4 4 3
Wind_Direction
197 194 197 200 196 191 191 192 196 189 199 203 216 200 183 184 150 122 70 27 10 34 294 306 217 267 265 281 263 257 228 234 238 242 214 189 198 130 135 248 261 135 38
197 196 198 198 197 193 192 191 194 195 204 195 212 217 225 198 126 46 80 41 27 351 281 291 274 286 278 253 273 266 278 253 236 261 252 211 173 145 102 119 153 53 82
201 198 199 199 195 193 193 194 193 194 202 198 200 183 176 200 165 159 135 55 12 9 355 350 321 322 303 334 298 276 272 273 258 258 278 272 198 117 126 84 70 57 65
204 202 198 197 195 192 188 190 189 192 192 197 204 208 210 196 144 173 103 111 32 357 349 346 342 327 324 337 290 291 271 266 261 233 245 276 303 237 158 130 100 83 59
202 200 199 196 196 191 185 182 185 187 189 196 191 204 207 187 168 167 116 297 72 1 343 343 340 330 326 341 327 321 291 272 273 264 248 243 231 238 225 193 128 90 74
197 197 195 190 191 188 183 178 177 182 184 187 188 196 193 194 188 194 177 211 132 32 358 327 332 324 331 328 315 306 295 301 296 285 271 258 257 241 213 196 176 125 80
193 191 191 188 187 186 182 177 174 179 181 181 183 185 188 192 199 223 188 282 322 28 24 346 337 335 335 324 320 312 316 308 295 282 276 270 267 259 216 187 167 135 107
190 190 189 188 186 183 179 178 177 178 178 177 179 183 191 200 189 200 272 281 346 15 10 348 348 347 340 338 338 322 329 336 312 307 306 292 308 245 184 184 174 164 130
185 188 187 187 185 181 179 178 176 176 176 174 174 178 185 187 175 180 212 206 336 23 28 3 358 1 4 353 337 14 355 357 346 359 11 349 37 13 311 175 208 218 169
180 183 183 183 181 178 175 176 176 176 174 174 179 171 174 175 178 180 123 76 35 20 13 9 16 16 15 12 2 35 32 27 36 27 32 15 33 44 39 81 172 243 159
179 178 178 177 173 173 172 173 173 174 174 173 171 170 168 168 168 163 155 142 108 83 47 35 40 42 34 30 32 39 42 43 46 40 52 49 33 35 69 88 101 102 117
172 174 172 170 171 172 173 173 173 175 173 168 166 166 163 161 161 150 142 134 121 108 89 74 61 55 51 43 46 42 43 42 42 42 47 44 61 65 51 73 96 97 105
168 169 169 170 173 173 172 170 174 173 169 164 163 159 160 157 155 145 140 134 128 116 103 92 78 61 58 57 58 56 51 47 45 41 42 42 52 58 69 69 87 102 109
168 171 170 171 169 168 167 167 170 167 164 162 161 159 161 157 151 147 144 140 135 127 115 105 94 83 72 68 64 66 61 55 51 43 42 42 48 58 82 97 100 106 119
170 173 174 167 163 160 159 162 162 162 161 161 161 158 156 153 151 150 146 142 140 132 120 116 111 107 99 62 50 73 76 65 61 57 56 58 53 42 36 50 83 112 127
176 173 171 166 164 162 160 159 159 160 161 159 156 153 155 156 155 150 145 141 136 129 128 124 114 92 67 55 26 6 77 68 65 63 70 95 89 83 73 62 61 58 91
180 175 172 169 166 165 160 160 159 159 159 157 156 157 158 155 153 149 144 144 143 141 138 133 120 101 85 73 55 22 75 79 67 61 51 60 82 98 108 117 120 90 73
181 176 168 163 162 161 161 159 157 158 160 161 160 160 160 155 151 149 146 146 145 145 142 136 128 119 104 96 88 326 117 91 82 74 70 70 71 56 62 106 102 98 88
174 172 169 163 157 158 158 156 157 160 164 165 164 164 163 156 154 153 151 151 150 149 152 143 140 134 124 114 132 280 133 116 101 87 72 71 85 41 6 114 113 109 113
155 162 162 157 155 155 154 158 160 164 169 168 167 164 162 160 157 154 155 154 155 157 159 144 149 146 133 126 175 281 175 134 131 119 108 75 69 59 11 120 119 114 104
144 149 149 148 151 155 156 157 159 165 167 164 163 160 159 158 154 151 153 155 160 156 154 148 154 155 140 145 157 297 273 155 152 134 124 99 98 96 34 329 107 109 144
137 141 142 141 147 157 159 154 161 164 162 160 159 155 157 160 152 152 155 157 159 162 165 166 171 162 160 154 155 173 316 331 136 124 110 103 113 119 130 146 108 176 235
134 138 140 142 149 158 163 157 155 160 158 156 156 154 156 159 158 163 162 167 176 184 179 180 180 171 160 147 150 161 163 311 221 88 78 102 152 176 167 159 187 212 211
138 142 146 149 151 157 162 157 154 160 157 156 157 158 162 167 168 179 179 183 184 188 188 190 189 177 173 170 166 167 166 169 176 161 143 163 192 215 150 167 192 211 206
148 154 158 155 153 155 157 154 153 161 160 160 163 166 169 170 173 179 179 194 183 191 202 201 198 192 187 155 140 188 185 192 160 170 185 188 186 190 188 191 196 200 187
158 162 160 159 157 155 156 155 159 166 165 168 173 175 175 171 176 170 163 76 95 116 120 15 275 151 116 138 150 159 147 145 172 210 204 203 205 206 203 202 194 198 203